This is the latest recevied weather packets stored in our database for station/object KO4WIL-13. If no packets are shown the sender has not sent any weather packets the latest 10 day(s).
| Time | Temp. | Humidity | Pressure | Rain* | Wind** | Luminosity | Snow |
|---|---|---|---|---|---|---|---|
| 1777559272 | 13.89° C | 69% | 966.4 hPa | 0 mm | - | - | - |
| 1777558969 | 13.89° C | 68% | 966.4 hPa | 0 mm | - | - | - |
| 1777558668 | 13.33° C | 68% | 966.4 hPa | 0 mm | - | - | - |
| 1777558366 | 13.33° C | 67% | 966.4 hPa | 0 mm | - | - | - |
| 1777558064 | 13.33° C | 70% | 966.4 hPa | 0 mm | - | - | - |
| 1777557762 | 13.89° C | 70% | 966.3 hPa | 0 mm | - | - | - |
| 1777557460 | 13.89° C | 71% | 966.3 hPa | 0 mm | - | - | - |
| 1777557157 | 13.89° C | 72% | 966.2 hPa | 0 mm | - | - | - |
| 1777556855 | 13.89° C | 73% | 966.1 hPa | 0 mm | - | - | - |
| 1777556554 | 13.33° C | 73% | 966.1 hPa | 0 mm | - | - | - |
| 1777556251 | 13.33° C | 74% | 966.1 hPa | 0 mm | - | - | - |
| 1777555949 | 12.78° C | 74% | 966 hPa | 0 mm | - | - | - |
| 1777555647 | 12.78° C | 74% | 966 hPa | 0 mm | - | - | - |
| 1777555345 | 12.78° C | 75% | 966.2 hPa | 0 mm | - | - | - |
| 1777555043 | 12.78° C | 75% | 966.1 hPa | 0 mm | - | - | - |
| 1777554741 | 12.78° C | 73% | 966.2 hPa | 0 mm | - | - | - |
| 1777554439 | 12.78° C | 73% | 966.1 hPa | 0 mm | - | - | - |
| 1777554137 | 13.33° C | 75% | 966.1 hPa | 0 mm | - | - | - |
| 1777553835 | 13.33° C | 72% | 966 hPa | 0 mm | - | - | - |
| 1777553534 | 13.33° C | 72% | 966 hPa | 0 mm | - | - | - |
| 1777553231 | 12.78° C | 75% | 966 hPa | 0 mm | - | - | - |
| 1777552929 | 12.78° C | 75% | 966 hPa | 0 mm | - | - | - |
| 1777552627 | 12.78° C | 74% | 965.8 hPa | 0 mm | - | - | - |
| 1777552325 | 12.78° C | 75% | 965.9 hPa | 0 mm | - | - | - |
| 1777552023 | 12.78° C | 73% | 965.8 hPa | 0 mm | - | - | - |
* Rain latest hour (hover to see other rain measurements)
** Current wind speed in m/s (hover to see current wind gust speed)